GW4332 Weather Reports


Display with metric or nautical units.
time (UTC)temp
F
wind
direction
speed
MPH
gust
MPH
rain 1hr
in
rain 24hr
in
rain mn
in
humidity
%
barometer
mb
20260904160029 66 249 28.0 36.0 0.00 0.00 0.02 82 1010.6
20260904155030 66 256 28.0 36.0 0.00 0.00 0.02 82 1010.7
20260904154029 66 255 32.0 41.0 0.00 0.00 0.02 82 1010.3
20260904153029 66 253 34.0 42.0 0.00 0.00 0.02 81 1010.2
20260904152030 66 255 32.0 43.0 0.00 0.00 0.02 82 1010.3
20260904151030 66 263 30.0 40.0 0.00 0.00 0.02 83 1010.3
20260904150030 66 258 28.0 39.0 0.00 0.00 0.02 84 1010.2
20260904145030 66 251 33.0 43.0 0.00 0.00 0.02 84 1010.0
20260904144029 66 257 30.0 39.0 0.00 0.00 0.02 85 1009.9
20260904143029 66 264 31.0 39.0 0.00 0.00 0.02 85 1009.7
20260904142030 66 242 27.0 37.0 0.00 0.00 0.02 88 1009.8
20260904141030 65 241 22.0 30.0 0.00 0.00 0.02 91 1009.7
20260904140030 65 236 21.0 34.0 0.00 0.00 0.02 91 1009.5
20260904135030 65 236 26.0 32.0 0.00 0.00 0.02 92 1009.5
20260904134030 64 231 23.0 33.0 0.00 0.00 0.02 92 1009.2
20260904133030 64 237 26.0 33.0 0.00 0.00 0.02 92 1009.2
20260904132030 64 224 24.0 33.0 0.00 0.00 0.02 93 1009.2
20260904131030 64 234 24.0 32.0 0.00 0.00 0.02 92 1009.4
20260904130030 63 245 23.0 32.0 0.00 0.00 0.02 92 1009.1
20260904125030 63 237 26.0 34.0 0.00 0.00 0.02 93 1009.0
20260904124030 63 249 26.0 37.0 0.00 0.00 0.02 93 1008.8
20260904123030 63 243 24.0 36.0 0.00 0.00 0.02 93 1008.8
20260904122030 63 246 24.0 30.0 0.00 0.00 0.02 94 1008.9
20260904121030 63 251 28.0 38.0 0.00 0.00 0.02 93 1008.6
20260904120029 63 241 20.0 29.0 0.00 0.00 0.02 94 1008.8
20260904115030 64 251 21.0 32.0 0.00 0.00 0.01 94 1008.9
20260904114030 64 250 23.0 31.0 0.00 0.00 0.01 93 1008.5
20260904113030 64 233 21.0 29.0 0.00 0.00 0.00 93 1008.6
20260904112030 64 229 14.0 23.0 0.00 0.00 0.00 92 1008.6
20260904111030 63 219 13.0 19.0 0.00 0.00 0.00 92 1008.5
20260904110030 63 221 15.0 20.0 0.00 0.00 0.00 91 1008.6
20260904105030 64 230 17.0 24.0 0.00 0.00 0.00 90 1008.7
20260904104030 64 249 24.0 30.0 0.00 0.00 0.00 89 1008.8
20260904103029 65 260 31.0 38.0 0.00 0.00 0.00 86 1008.8
20260904102030 66 246 25.0 38.0 0.00 0.00 0.00 83 1008.6
20260904101030 67 239 22.0 30.0 0.00 0.00 0.00 84 1008.5
20260904100030 67 230 22.0 29.0 0.00 0.00 0.00 84 1008.4
20260904095030 67 247 23.0 32.0 0.00 0.00 0.00 84 1008.3
20260904094030 68 260 34.0 42.0 0.00 0.00 0.00 83 1007.8
20260904093031 69 251 32.0 42.0 0.00 0.00 0.00 85 1007.3
20260904092029 70 224 25.0 42.0 0.00 0.00 0.00 83 1007.5
20260904091030 70 229 25.0 39.0 0.00 0.00 0.00 82 1007.5
20260904090030 70 231 26.0 43.0 0.00 0.00 0.00 82 1007.5
20260904085030 70 216 24.0 37.0 0.00 0.00 0.00 82 1007.5
20260904084030 70 216 21.0 38.0 0.00 0.00 0.00 82 1007.6
20260904083030 70 224 22.0 35.0 0.00 0.00 0.00 83 1007.4
20260904082030 70 228 23.0 39.0 0.00 0.00 0.00 84 1007.6
20260904081030 70 219 22.0 38.0 0.00 0.00 0.00 84 1007.5
20260904080030 70 214 21.0 34.0 0.00 0.00 0.00 84 1007.6
20260904075029 70 211 22.0 38.0 0.00 0.00 0.00 84 1007.7
20260904074030 70 217 18.0 29.0 0.00 0.00 0.00 85 1007.9
20260904073030 69 225 22.0 36.0 0.00 0.00 0.00 85 1008.0
20260904072030 69 215 20.0 35.0 0.00 0.00 0.00 85 1008.1
20260904071030 69 209 17.0 31.0 0.00 0.00 0.00 85 1008.2
20260904070030 69 216 18.0 31.0 0.00 0.00 0.00 85 1008.4
20260904065030 69 212 17.0 28.0 0.00 0.00 0.00 86 1008.5
20260904064030 69 202 15.0 25.0 0.00 0.00 0.00 86 1008.5
20260904063030 69 223 16.0 32.0 0.00 0.00 0.00 86 1008.6
20260904062030 68 218 17.0 33.0 0.00 0.00 0.00 86 1008.7
20260904061030 68 210 17.0 30.0 0.00 0.00 0.00 87 1008.7
20260904060030 68 208 15.0 28.0 0.00 0.00 0.00 87 1009.0
20260904055030 68 217 15.0 27.0 0.00 0.00 0.00 87 1008.9
20260904054029 68 207 15.0 30.0 0.00 0.00 0.00 87 1009.0
20260904053033 68 212 17.0 30.0 0.00 0.00 0.00 87 1009.1
20260904052030 68 206 14.0 24.0 0.00 0.00 0.00 88 1009.4
20260904051030 68 200 12.0 21.0 0.00 0.00 0.00 88 1009.4
20260904050030 68 209 14.0 25.0 0.00 0.00 0.00 88 1009.5
20260904045030 68 208 13.0 24.0 0.00 0.00 0.00 89 1009.8
20260904044030 68 205 13.0 24.0 0.00 0.00 0.00 89 1009.9
20260904043030 68 206 10.0 21.0 0.00 0.00 0.00 89 1010.1
20260904042030 68 209 10.0 19.0 0.00 0.00 0.00 89 1010.1
20260904041029 68 209 11.0 19.0 0.00 0.00 0.00 89 1010.3
20260904040030 68 211 11.0 24.0 0.00 0.00 0.00 90 1010.5
20260904035030 68 210 13.0 23.0 0.00 0.00 0.00 90 1010.5
20260904034030 67 213 12.0 19.0 0.00 0.00 0.00 90 1010.7
20260904033030 67 210 11.0 19.0 0.00 0.00 0.00 91 1010.7
20260904032030 67 199 9.0 18.0 0.00 0.00 0.00 91 1010.7
20260904031029 67 213 9.0 17.0 0.00 0.00 0.00 91 1010.9
20260904030030 67 196 9.0 16.0 0.00 0.00 0.00 91 1011.1
20260904025030 67 195 8.0 17.0 0.00 0.00 0.00 91 1011.1
20260904024030 67 190 8.0 14.0 0.00 0.00 0.00 91 1011.2
20260904023030 68 205 8.0 15.0 0.00 0.00 0.00 91 1011.3
20260904022030 68 197 7.0 15.0 0.00 0.00 0.00 90 1011.4
20260904021030 68 202 9.0 15.0 0.00 0.00 0.00 90 1011.6
20260904020030 68 177 7.0 15.0 0.00 0.00 0.00 90 1011.8
20260904015030 68 204 10.0 17.0 0.00 0.00 0.00 90 1011.9
20260904014030 68 202 11.0 20.0 0.00 0.00 0.00 90 1011.9
20260904013030 68 211 11.0 18.0 0.00 0.00 0.00 90 1012.1
20260904012030 68 200 11.0 20.0 0.00 0.00 0.00 90 1012.2
20260904011030 68 210 13.0 22.0 0.00 0.00 0.00 90 1012.4
20260904010031 68 205 11.0 21.0 0.00 0.00 0.00 90 1012.5
20260904005030 68 207 12.0 19.0 0.00 0.00 0.00 90 1012.7
20260904004029 68 210 11.0 19.0 0.00 0.00 0.00 90 1012.7
20260904003030 68 197 11.0 19.0 0.00 0.00 0.00 90 1012.8
20260904002030 68 203 10.0 16.0 0.00 0.00 0.00 90 1012.8
20260904001030 68 202 11.0 18.0 0.00 0.00 0.00 90 1012.9
20260904000030 68 199 9.0 18.0 0.00 0.00 0.00 91 1012.9
20260903235029 68 201 9.0 17.0 0.00 0.00 0.00 91 1012.9
20260903234030 68 200 10.0 20.0 0.00 0.00 0.00 91 1013.1
20260903233030 68 207 9.0 18.0 0.00 0.00 0.00 91 1013.2
20260903232030 67 191 8.0 14.0 0.00 0.00 0.00 91 1013.4
20260903231029 67 194 9.0 17.0 0.00 0.00 0.00 91 1013.5
20260903230030 67 202 8.0 17.0 0.00 0.00 0.00 91 1013.6
20260903225030 67 204 9.0 18.0 0.00 0.00 0.00 91 1013.9
20260903224030 67 201 9.0 15.0 0.00 0.00 0.00 91 1013.9
20260903223030 67 188 7.0 15.0 0.00 0.00 0.00 91 1014.0
20260903222029 67 202 8.0 15.0 0.00 0.00 0.00 91 1014.3
20260903221030 67 200 7.0 15.0 0.00 0.00 0.00 91 1014.3
20260903220030 67 196 7.0 13.0 0.00 0.00 0.07 91 1014.6
20260903215029 67 208 7.0 14.0 0.00 0.00 0.07 91 1014.6
20260903214029 67 200 7.0 14.0 0.00 0.00 0.07 91 1014.7
20260903213030 67 200 6.0 13.0 0.00 0.00 0.07 90 1014.8
20260903212030 67 193 7.0 13.0 0.00 0.00 0.07 90 1014.8
20260903211030 67 210 9.0 17.0 0.00 0.00 0.06 90 1014.9
20260903210030 67 201 6.0 14.0 0.00 0.00 0.06 89 1015.0
20260903205030 67 187 6.0 11.0 0.00 0.00 0.06 89 1015.0
20260903204029 67 190 4.0 11.0 0.00 0.00 0.06 89 1015.2
20260903203030 67 185 6.0 11.0 0.00 0.00 0.06 88 1015.3
20260903202030 67 187 4.0 8.0 0.00 0.00 0.06 88 1015.2
20260903201030 67 195 4.0 10.0 0.00 0.00 0.06 88 1015.3
20260903200029 67 190 5.0 11.0 0.00 0.00 0.06 89 1015.3
20260903195030 67 217 5.0 11.0 0.00 0.00 0.06 89 1015.4
20260903194030 68 215 7.0 13.0 0.00 0.00 0.06 88 1015.6
20260903193030 68 230 9.0 15.0 0.00 0.00 0.06 88 1015.6
20260903192030 68 225 12.0 18.0 0.00 0.00 0.06 88 1015.7
20260903191029 68 232 11.0 16.0 0.00 0.00 0.06 88 1015.6
20260903190030 68 226 12.0 18.0 0.00 0.00 0.06 88 1015.8
20260903185030 68 226 11.0 15.0 0.00 0.00 0.06 87 1015.6
20260903184029 68 230 10.0 15.0 0.00 0.00 0.06 87 1015.7
20260903183030 68 235 12.0 16.0 0.00 0.00 0.06 86 1015.8
20260903182030 69 241 16.0 21.0 0.00 0.00 0.06 86 1015.8
20260903181030 68 225 13.0 19.0 0.00 0.00 0.06 86 1015.8
20260903180030 68 228 13.0 17.0 0.00 0.00 0.06 86 1015.7
20260903175030 68 239 13.0 17.0 0.00 0.00 0.06 85 1015.6
20260903174030 69 236 13.0 16.0 0.00 0.00 0.06 84 1015.9
20260903173030 69 239 12.0 16.0 0.00 0.00 0.06 84 1015.4
20260903172030 69 238 12.0 16.0 0.00 0.00 0.06 84 1015.2
20260903171030 69 234 13.0 16.0 0.00 0.00 0.06 84 1015.5
20260903170030 68 230 11.0 15.0 0.00 0.00 0.06 85 1015.4
20260903165030 68 240 12.0 15.0 0.00 0.00 0.06 85 1015.3
20260903164030 69 240 13.0 17.0 0.00 0.00 0.06 84 1015.5
20260903163029 69 246 15.0 20.0 0.00 0.00 0.06 83 1015.4
20260903162030 69 245 16.0 21.0 0.00 0.00 0.06 82 1015.6
20260903161030 69 246 16.0 21.0 0.00 0.00 0.06 82 1015.5